[Date Prev][Date Next][Thread Prev][Thread Next] - [Date Index][Thread Index][Author Index]

2 Line ISS Keps 2-23



ISS
1 25544U 98067A   05054.15538340  .00022824  00000-0  18861-3 0  8751
2 25544  51.6480 124.1236 0004530 126.3973 322.6679 15.70190520357750
----
Via the sarex mailing list at AMSAT.ORG courtesy of AMSAT-NA.
To unsubscribe, send "unsubscribe sarex" to Majordomo@amsat.org



AMSAT Top AMSAT Home